Location: Street
(51.1247°N, 2.7429°W)
Time: 01:32:14
(UTC+00:00)

deb Explorer IX - Pass Details

Date: 10 December 2020
Orbit: 536 x 1104 km, 38.8° (Epoch: 20 January)

Event Time Altitude Azimuth Distance (km) Brightness Sun altitude
Rises 13:54:23 0° 245° (WSW) 3,916 ? 12.0°
Reaches altitude 10° 13:57:33 10° 235° (SW) 2,945 ? 11.8°
Maximum altitude 14:03:36 29° 179° (S) 1,811 ? 11.4°
Drops below altitude 10° 14:09:16 10° 122° (ESE) 2,742 ? 10.9°
Sets 14:12:07 0° 111° (ESE) 3,606 ? 10.7°
